TimeEST,TemperatureF,Dew PointF,Humidity,Sea Level PressureIn,VisibilityMPH,Wind Direction,Wind SpeedMPH,Gust SpeedMPH,PrecipitationIn,Events,Conditions,WindDirDegrees,DateUTC
12:54 AM,62.1,48.9,62,30.01,10.0,South,10.4,23.0,N/A,,Overcast,180,2012-11-13 05:54:00
1:54 AM,62.1,50.0,65,30.02,9.0,South,9.2,20.7,N/A,,Overcast,190,2012-11-13 06:54:00
2:09 AM,53.6,48.2,82,30.07,2.0,WNW,15.0,25.3,0.09,Rain,Heavy Rain,300,2012-11-13 07:09:00
2:23 AM,53.6,46.4,77,30.08,3.0,Calm,Calm,-,0.15,Rain,Rain,0,2012-11-13 07:23:00
2:54 AM,50.0,46.9,89,30.11,5.0,SSW,3.5,-,0.21,Rain,Light Rain,200,2012-11-13 07:54:00
3:54 AM,48.0,44.1,86,30.13,6.0,NW,6.9,-,0.09,Rain,Light Rain,320,2012-11-13 08:54:00
4:54 AM,46.9,44.1,90,30.16,7.0,East,4.6,-,0.09,Rain,Light Rain,90,2012-11-13 09:54:00
5:50 AM,44.6,39.2,81,30.16,10.0,North,3.5,-,0.03,Rain,Light Rain,10,2012-11-13 10:50:00
5:54 AM,45.0,39.9,82,30.18,10.0,NNE,3.5,-,0.03,Rain,Light Rain,20,2012-11-13 10:54:00
7:10 AM,42.8,39.2,87,30.22,9.0,SSW,4.6,-,0.02,Rain,Light Rain,200,2012-11-13 12:10:00
7:39 AM,41.0,37.4,87,30.25,5.0,Calm,Calm,-,0.06,Rain,Rain,0,2012-11-13 12:39:00
7:54 AM,41.0,37.9,89,30.25,4.0,Calm,Calm,-,0.08,Rain,Light Rain,0,2012-11-13 12:54:00
8:12 AM,39.2,37.4,93,30.24,6.0,Variable,3.5,-,0.02,Rain,Light Rain,0,2012-11-13 13:12:00
8:54 AM,39.0,36.0,89,30.27,7.0,SSW,5.8,-,0.07,Rain,Light Rain,210,2012-11-13 13:54:00
9:54 AM,39.9,36.0,86,30.30,10.0,Calm,Calm,-,0.01,,Overcast,0,2012-11-13 14:54:00
10:34 AM,39.2,30.2,70,30.28,10.0,Variable,6.9,-,N/A,,Overcast,0,2012-11-13 15:34:00
10:54 AM,39.9,30.0,68,30.30,10.0,WNW,10.4,-,N/A,,Overcast,300,2012-11-13 15:54:00
11:54 AM,41.0,27.0,57,30.29,10.0,WNW,8.1,16.1,N/A,,Overcast,300,2012-11-13 16:54:00
12:54 PM,41.0,24.1,51,30.30,10.0,WNW,10.4,16.1,N/A,,Clear,300,2012-11-13 17:54:00
1:54 PM,42.1,24.1,49,30.30,10.0,WNW,3.5,-,N/A,,Overcast,300,2012-11-13 18:54:00
2:54 PM,41.0,26.1,55,30.32,10.0,NNW,6.9,-,N/A,,Overcast,340,2012-11-13 19:54:00
3:54 PM,41.0,24.1,51,30.35,10.0,NNW,10.4,-,N/A,,Overcast,340,2012-11-13 20:54:00
4:54 PM,39.0,23.0,53,30.37,10.0,NNW,5.8,-,N/A,,Scattered Clouds,330,2012-11-13 21:54:00
5:54 PM,36.0,25.0,64,30.41,10.0,Calm,Calm,-,N/A,,Partly Cloudy,0,2012-11-13 22:54:00
6:54 PM,32.0,26.1,79,30.44,10.0,Calm,Calm,-,N/A,,Clear,0,2012-11-13 23:54:00
7:54 PM,30.0,26.1,85,30.46,10.0,Calm,Calm,-,N/A,,Clear,0,2012-11-14 00:54:00
8:54 PM,28.0,25.0,88,30.48,10.0,Calm,Calm,-,N/A,,Clear,0,2012-11-14 01:54:00
9:54 PM,27.0,24.1,89,30.50,9.0,Calm,Calm,-,N/A,,Clear,0,2012-11-14 02:54:00
10:54 PM,26.1,23.0,88,30.51,10.0,Calm,Calm,-,N/A,,Clear,0,2012-11-14 03:54:00
11:54 PM,26.1,21.9,84,30.52,10.0,Calm,Calm,-,N/A,,Clear,0,2012-11-14 04:54:00